SBI6404 UHWW-UIII

Flight info

Callsign SBI6404
Flight time N/A
Altitude 36100
Route SANAR2W SANAR B451 HLD A345 TELOK/K0843F360 A810 BADEK/K0843F380 A810 RINOP A45 USONA USONA4A
Aircraft A320/M-SDE3FGHIRWY/LB1

Departure

Time 2026-04-17 09:58
Airport Vladivostok International Airport (UHWW)

Arrival

Time N/A
Airport Irkutsk International Airport (UIII)
Time Latitude Longitude Altitude Speed Heading
2026-04-17 09:48 43.39812 132.16732 33 ft 0 kts 150°
2026-04-17 09:50 43.39833 132.16714 33 ft 4 kts 143°
2026-04-17 09:51 43.39853 132.16690 30 ft 4 kts 133°
2026-04-17 09:51 43.39870 132.16662 32 ft 4 kts 120°
2026-04-17 09:51 43.39880 132.16628 30 ft 4 kts 97°
2026-04-17 09:51 43.39879 132.16599 30 ft 1 kts 60°
2026-04-17 09:55 43.39880 132.16601 33 ft 3 kts 61°
2026-04-17 09:55 43.39926 132.16720 32 ft 25 kts 62°
2026-04-17 09:55 43.40009 132.16927 33 ft 15 kts 63°
2026-04-17 09:56 43.40068 132.17064 33 ft 15 kts 52°
2026-04-17 09:56 43.40164 132.17047 31 ft 17 kts 332°
2026-04-17 09:56 43.40284 132.16957 33 ft 22 kts 332°
2026-04-17 09:56 43.40341 132.16916 33 ft 0 kts 333°
2026-04-17 09:57 43.40380 132.16884 31 ft 13 kts 327°
2026-04-17 09:57 43.40416 132.16752 32 ft 12 kts 241°
2026-04-17 09:57 43.40329 132.16539 30 ft 65 kts 240°
2026-04-17 09:58 43.39972 132.15658 30 ft 142 kts 241°
2026-04-17 09:58 43.39394 132.14280 178 ft 187 kts 238°
2026-04-17 09:58 43.38718 132.12708 1008 ft 190 kts 237°
2026-04-17 09:58 43.38090 132.11133 2037 ft 195 kts 238°
2026-04-17 09:59 43.37497 132.09371 2966 ft 209 kts 249°
2026-04-17 09:59 43.37027 132.07401 3890 ft 229 kts 252°
2026-04-17 09:59 43.36508 132.05217 4740 ft 248 kts 253°
2026-04-17 09:59 43.35962 132.02933 5530 ft 253 kts 252°
2026-04-17 10:00 43.35407 132.00644 6499 ft 252 kts 251°
2026-04-17 10:00 43.34846 131.98354 7406 ft 253 kts 250°
2026-04-17 10:00 43.34280 131.96055 8298 ft 255 kts 250°
2026-04-17 10:00 43.33709 131.93746 9191 ft 257 kts 249°
2026-04-17 10:01 43.33130 131.91412 10035 ft 259 kts 249°
2026-04-17 10:01 43.32533 131.89015 10521 ft 275 kts 249°
2026-04-17 10:01 43.31886 131.86424 10750 ft 299 kts 250°
2026-04-17 10:01 43.31185 131.83616 10949 ft 321 kts 250°
2026-04-17 10:02 43.30449 131.80659 11438 ft 331 kts 250°
2026-04-17 10:02 43.29701 131.77647 12124 ft 336 kts 250°
2026-04-17 10:02 43.28939 131.74592 12842 ft 339 kts 251°
2026-04-17 10:02 43.28172 131.71510 13559 ft 343 kts 251°
2026-04-17 10:03 43.27394 131.68386 14186 ft 347 kts 251°
2026-04-17 10:03 43.26617 131.65282 14801 ft 350 kts 251°
2026-04-17 10:03 43.25811 131.62077 15426 ft 353 kts 251°
2026-04-17 10:03 43.25016 131.58926 16021 ft 355 kts 251°
2026-04-17 10:04 43.24204 131.55708 16624 ft 358 kts 251°
2026-04-17 10:04 43.23388 131.52466 17217 ft 361 kts 251°
2026-04-17 10:04 43.22566 131.49201 17781 ft 363 kts 251°
2026-04-17 10:04 43.21925 131.45847 18320 ft 366 kts 261°
2026-04-17 10:05 43.21753 131.42358 18836 ft 369 kts 270°
2026-04-17 10:05 43.21979 131.38839 19333 ft 371 kts 274°
2026-04-17 10:05 43.22236 131.35316 19827 ft 373 kts 274°
2026-04-17 10:05 43.22487 131.31769 20313 ft 375 kts 273°
2026-04-17 10:06 43.22736 131.28199 20778 ft 377 kts 273°
2026-04-17 10:06 43.22983 131.24615 21264 ft 379 kts 273°
2026-04-17 10:06 43.23236 131.21006 21739 ft 381 kts 273°
2026-04-17 10:06 43.23479 131.17387 22212 ft 382 kts 272°
2026-04-17 10:07 43.23679 131.13741 22662 ft 384 kts 271°
2026-04-17 10:07 43.23850 131.10077 23110 ft 386 kts 271°
2026-04-17 10:07 43.24006 131.06388 23529 ft 388 kts 270°
2026-04-17 10:07 43.24158 131.02724 23872 ft 390 kts 271°
2026-04-17 10:08 43.24319 130.99005 24236 ft 392 kts 271°
2026-04-17 10:08 43.24489 130.95265 24598 ft 394 kts 271°
2026-04-17 10:08 43.24664 130.91503 24945 ft 396 kts 271°
2026-04-17 10:08 43.24841 130.87723 25293 ft 398 kts 271°
2026-04-17 10:09 43.25016 130.83933 25630 ft 400 kts 271°
2026-04-17 10:09 43.25193 130.80112 25965 ft 402 kts 271°
2026-04-17 10:09 43.25366 130.76279 26278 ft 404 kts 271°
2026-04-17 10:09 43.25538 130.72424 26602 ft 405 kts 271°
2026-04-17 10:10 43.25708 130.68564 26913 ft 407 kts 271°
2026-04-17 10:10 43.25880 130.64682 27216 ft 408 kts 271°
2026-04-17 10:10 43.26050 130.60783 27498 ft 410 kts 271°
2026-04-17 10:11 43.26389 130.52974 28087 ft 413 kts 271°
2026-04-17 10:11 43.26561 130.49003 28422 ft 413 kts 271°
2026-04-17 10:11 43.26731 130.45071 28864 ft 411 kts 271°
2026-04-17 10:11 43.26896 130.41163 29323 ft 409 kts 271°
2026-04-17 10:12 43.27055 130.37273 29771 ft 408 kts 271°
2026-04-17 10:12 43.27213 130.33398 30167 ft 406 kts 271°
2026-04-17 10:12 43.27369 130.29533 30524 ft 405 kts 271°
2026-04-17 10:12 43.27525 130.25679 30876 ft 404 kts 271°
2026-04-17 10:13 43.27679 130.21840 31228 ft 403 kts 271°
2026-04-17 10:13 43.27833 130.18006 31368 ft 402 kts 271°
2026-04-17 10:13 43.27985 130.14185 31387 ft 401 kts 271°
2026-04-17 10:14 43.28284 130.06549 31386 ft 400 kts 271°
2026-04-17 10:14 43.28573 129.98927 31383 ft 400 kts 271°
2026-04-17 10:15 43.28858 129.91321 31385 ft 399 kts 270°
2026-04-17 10:15 43.29226 129.83723 31377 ft 400 kts 276°
2026-04-17 10:16 43.31139 129.76503 31382 ft 411 kts 296°
2026-04-17 10:16 43.34830 129.70439 31378 ft 420 kts 307°
2026-04-17 10:17 43.38832 129.64594 31381 ft 420 kts 307°
2026-04-17 10:17 43.42821 129.58723 31372 ft 419 kts 307°
2026-04-17 10:18 43.46798 129.52838 31374 ft 420 kts 307°
2026-04-17 10:18 43.50770 129.46956 31368 ft 420 kts 307°
2026-04-17 10:19 43.54770 129.41050 31361 ft 421 kts 307°
2026-04-17 10:19 43.58752 129.35146 31351 ft 421 kts 306°
2026-04-17 10:20 43.62735 129.29214 31354 ft 421 kts 307°
2026-04-17 10:20 43.66709 129.23289 31346 ft 421 kts 306°
2026-04-17 10:21 43.70684 129.17352 31344 ft 420 kts 306°
2026-04-17 10:21 43.74629 129.11438 31335 ft 421 kts 306°
2026-04-17 10:22 43.78628 129.05516 31330 ft 421 kts 307°
2026-04-17 10:22 43.82649 128.99625 31321 ft 421 kts 307°
2026-04-17 10:23 43.86662 128.93732 31320 ft 420 kts 307°
2026-04-17 10:23 43.90652 128.87828 31311 ft 419 kts 307°
2026-04-17 10:24 43.94632 128.81921 31306 ft 419 kts 306°
2026-04-17 10:24 43.98602 128.76010 31313 ft 418 kts 306°
2026-04-17 10:25 44.02551 128.70140 31301 ft 418 kts 306°
2026-04-17 10:25 44.04540 128.67179 31552 ft 419 kts 306°
2026-04-17 10:25 44.06522 128.64219 31954 ft 417 kts 306°
2026-04-17 10:25 44.08489 128.61276 32349 ft 415 kts 306°
2026-04-17 10:26 44.10448 128.58333 32756 ft 413 kts 306°
2026-04-17 10:26 44.12391 128.55410 33110 ft 411 kts 306°
2026-04-17 10:26 44.14333 128.52499 33481 ft 410 kts 306°
2026-04-17 10:26 44.16279 128.49607 33851 ft 408 kts 307°
2026-04-17 10:27 44.18225 128.46730 34150 ft 407 kts 307°
2026-04-17 10:27 44.20166 128.43859 34432 ft 407 kts 307°
2026-04-17 10:27 44.22098 128.40992 34683 ft 406 kts 307°
2026-04-17 10:27 44.24030 128.38111 34944 ft 406 kts 306°
2026-04-17 10:28 44.25955 128.35232 35187 ft 406 kts 306°
2026-04-17 10:28 44.27879 128.32350 35426 ft 406 kts 306°
2026-04-17 10:28 44.28526 128.31381 35496 ft 406 kts 306°